Flag for Switzerland Weather past 2 weeks in Monthey, Valais, Switzerland

Now
65 °F

Partly sunny.


Feels Like: 65 °F
Forecast: 60 / 80 °F
Wind: 5 mph from North

Location: Aigle

Current Time: Sep 19, 2014 at 12:27:34 PM

Latest Report: Sep 19, 2014 at 11:00 AM


Visibility: 13 mi

Pressure: 29.98 "Hg

Humidity: 87%

Dew point: 61 °F

Location of MontheyLocation

Historic Weather in Monthey — Graph

°F

Monthey temperature yesterday

Maximum temperature yesterday: 72 °F (at 6:00 PM)
Minimum temperature yesterday: 60 °F (at 1:00 AM)
Average temperature yesterday: 65 °F

Past Weeks' High & Low Weather Summary

 TemperatureHumidityPressure
High76 °F (Sep 7, 4:00 PM)100% (Sep 10, 7:00 AM)30.11 "Hg (Sep 10, 7:00 AM)
Low47 °F (Sep 12, 8:00 AM)51% (Sep 12, 5:00 PM)29.82 "Hg (Sep 17, 3:00 PM)
Average63 °F80%29.96 "Hg
* Reported Sep 4 11:00 AM — Sep 19 11:00 AM, Monthey, Weather by CustomWeather, © 2014

Note: Actual official high and low records may vary slightly from our data, if they occured in-between our weather recording intervals... More about our weather records

Advertising

Monthey weather history for previous 24 hours

 ConditionsComfort  
Time TempWeatherWind HumidityBarometerVisibility
11:00 AM
Sep 19
65 °FPartly sunny.5 mph87%29.98 "Hg12 mi
10:00 AM68 °FMild.1 mph66%29.94 "HgN/A
9:00 AM64 °FMild.5 mph85%29.93 "HgN/A
8:00 AM63 °FPartly sunny.2 mph90%29.95 "Hg16 mi
7:00 AM62 °FCool.3 mph85%29.94 "HgN/A
6:00 AM68 °FMild.3 mph54%29.91 "HgN/A
5:00 AM66 °FOvercast.5 mph60%29.90 "Hg12 mi
4:00 AM65 °FMild.2 mph69%29.92 "HgN/A
3:00 AM65 °FMild.2 mph64%29.93 "HgN/A
2:00 AM62 °FCool.6 mph80%29.94 "HgN/A
1:00 AM64 °FMild.3 mph72%29.94 "HgN/A
12:00 AM66 °FMild.5 mph68%29.93 "HgN/A
11:00 PM
Sep 18
63 °FMild.2 mph82%29.92 "HgN/A
10:00 PM64 °FMild.6 mph82%29.92 "HgN/A
9:00 PM63 °FMild.5 mph89%29.90 "HgN/A
8:00 PM65 °FPassing clouds.1 mph85%29.89 "Hg19 mi
7:00 PM67 °FMild.5 mph72%29.88 "HgN/A
6:00 PM72 °FMild.5 mph61%29.85 "HgN/A
5:00 PM71 °FScattered clouds.3 mph71%29.86 "Hg25 mi
4:00 PM69 °FMild.5 mph79%29.88 "HgN/A
3:00 PM67 °FMild.5 mph82%29.90 "HgN/A
2:00 PM67 °FOvercast.1 mph78%29.91 "Hg12 mi
1:00 PM66 °FMild.7 mph85%29.91 "HgN/A
12:00 PM67 °FMild.2 mph86%29.89 "HgN/A
Weather by CustomWeather, © 2014

See weather overviewHow to use our weather pages